Tracking 21605 objects as of 26-Oct-2020
HD Live streaming from Space Station
objects crossing your sky now

COSMOS 2236 (GLONASS)

Track COSMOS 2236 (GLONASS) now!
COSMOS 2236 (GLONASS) is classified as:


NORAD ID: 22513
Int'l Code: 1993-010B
Perigee: 19,124.1 km
Apogee: 19,149.6 km
Inclination: 64.1 °
Period: 675.7 minutes
Semi major axis: 25507 km
RCS: 3.1089 m2 (large)
Launch date: February 17, 1993
Source: Commonwealth of Independent States (former USSR) (CIS)
Launch site: TYURATAM MISSILE AND SPACE COMPLEX (TTMTR)
aabbcc
Your satellite tracking list
Your tracking list is empty




NASA's NSSDC Master Catalog

Two Line Element Set (TLE):
1 22513U 93010B   20300.50833837 +.00000080 +00000-0 +00000-0 0  9996
2 22513 064.1078 140.9605 0005001 097.6064 082.7773 02.13104741215481
Source of the keplerian elements: AFSPC